TimeCST,TemperatureF,Dew PointF,Humidity,Sea Level PressureIn,VisibilityMPH,Wind Direction,Wind SpeedMPH,Gust SpeedMPH,PrecipitationIn,Events,Conditions,WindDirDegrees,DateUTC
12:15 AM,26.4,24.6,93,30.40,10.0,NNE,6.9,-,N/A,,Overcast,30,2013-12-23 06:15:00
12:35 AM,26.4,24.4,92,30.40,10.0,North,6.9,-,N/A,,Overcast,10,2013-12-23 06:35:00
12:55 AM,25.3,23.5,93,30.39,10.0,Calm,Calm,-,N/A,,Mostly Cloudy,0,2013-12-23 06:55:00
1:15 AM,25.3,23.7,94,30.39,10.0,Calm,Calm,-,N/A,,Clear,0,2013-12-23 07:15:00
1:35 AM,23.9,23.0,96,30.39,10.0,Calm,Calm,-,N/A,,Clear,0,2013-12-23 07:35:00
1:55 AM,25.2,24.4,97,30.40,10.0,Calm,Calm,-,N/A,,Clear,0,2013-12-23 07:55:00
2:15 AM,25.3,23.9,94,30.40,10.0,Calm,Calm,-,N/A,,Clear,0,2013-12-23 08:15:00
2:35 AM,24.1,23.5,98,30.40,10.0,Calm,Calm,-,N/A,,Clear,0,2013-12-23 08:35:00
2:55 AM,23.4,22.8,98,30.40,10.0,Calm,Calm,-,N/A,,Clear,0,2013-12-23 08:55:00
3:15 AM,22.6,22.6,100,30.42,10.0,Calm,Calm,-,N/A,,Scattered Clouds,0,2013-12-23 09:15:00
3:35 AM,21.6,21.2,99,30.41,10.0,North,3.5,-,N/A,,Overcast,360,2013-12-23 09:35:00
3:55 AM,23.9,23.7,99,30.41,10.0,Calm,Calm,-,N/A,,Overcast,0,2013-12-23 09:55:00
4:15 AM,24.4,23.7,97,30.42,10.0,Calm,Calm,-,N/A,,Overcast,0,2013-12-23 10:15:00
4:35 AM,25.3,24.3,96,30.42,10.0,Calm,Calm,-,N/A,,Overcast,0,2013-12-23 10:35:00
4:55 AM,25.7,24.6,96,30.42,10.0,NNE,3.5,-,N/A,,Overcast,20,2013-12-23 10:55:00
5:15 AM,25.3,24.1,95,30.43,10.0,NE,3.5,-,N/A,,Overcast,50,2013-12-23 11:15:00
5:35 AM,24.6,23.7,96,30.42,10.0,NNE,4.6,-,N/A,,Overcast,30,2013-12-23 11:35:00
6:55 AM,26.6,24.8,93,30.46,10.0,Calm,Calm,-,N/A,,Overcast,0,2013-12-23 12:55:00
7:55 AM,26.6,24.8,93,30.50,10.0,Calm,Calm,-,N/A,,Overcast,0,2013-12-23 13:55:00
8:55 AM,26.6,24.8,93,30.51,10.0,Calm,Calm,-,N/A,,Overcast,0,2013-12-23 14:55:00
9:55 AM,26.6,24.8,93,30.54,10.0,Calm,Calm,-,N/A,,Overcast,0,2013-12-23 15:55:00
10:55 AM,30.2,26.6,86,30.55,10.0,Calm,Calm,-,N/A,,Overcast,0,2013-12-23 16:55:00
11:40 AM,30.2,26.6,86,30.55,10.0,ESE,3.5,-,N/A,,Clear,120,2013-12-23 17:40:00
11:55 AM,35.6,26.6,70,30.52,10.0,ESE,4.6,-,N/A,,Clear,120,2013-12-23 17:55:00
12:55 PM,37.4,28.4,70,30.50,10.0,Calm,Calm,-,N/A,,Clear,0,2013-12-23 18:55:00
1:55 PM,41.0,28.4,61,30.49,10.0,Calm,Calm,-,N/A,,Clear,0,2013-12-23 19:55:00
2:55 PM,41.0,28.4,61,30.49,10.0,Calm,Calm,-,N/A,,Clear,0,2013-12-23 20:55:00
3:55 PM,41.0,28.4,61,30.50,10.0,NE,8.1,-,N/A,,Clear,40,2013-12-23 21:55:00
5:55 PM,30.2,26.6,86,30.54,10.0,North,11.5,-,N/A,,Clear,10,2013-12-23 23:55:00
6:55 PM,28.4,26.6,93,30.57,10.0,North,9.2,-,N/A,,Unknown,360,2013-12-24 00:55:00
7:55 PM,28.4,26.6,93,30.58,10.0,North,9.2,-,N/A,,Overcast,360,2013-12-24 01:55:00
8:55 PM,28.4,26.6,93,30.58,10.0,North,9.2,-,N/A,,Overcast,360,2013-12-24 02:55:00
9:55 PM,28.4,26.6,93,30.58,10.0,North,9.2,-,N/A,,Overcast,360,2013-12-24 03:55:00
10:35 PM,28.2,25.7,90,30.58,10.0,NNE,10.4,-,N/A,,Overcast,30,2013-12-24 04:35:00
10:55 PM,28.2,25.7,90,30.59,10.0,NE,9.2,-,N/A,,Overcast,50,2013-12-24 04:55:00
11:15 PM,28.4,25.7,90,30.57,10.0,NNE,8.1,-,N/A,,Overcast,20,2013-12-24 05:15:00
11:35 PM,28.2,25.7,90,30.57,10.0,NE,9.2,-,N/A,,Overcast,50,2013-12-24 05:35:00
11:55 PM,28.2,25.7,90,30.57,10.0,NNE,5.8,-,N/A,,Overcast,20,2013-12-24 05:55:00